User: anonymous   Login
Location: Wawayanda State Park
(41.1833°N, 74.4333°W)
Time: 12:02:25
(UTC-05:00)
Language:

RESURS DK-1 - Orbit

View from above orbital plane
View from above orbital plane
View from above satellite
View from above satellite

Ground track
Ground track

The orbit data is extracted from the following two-line orbital elements,

1 29228U 06021A   17019.47575288  .00000139  00000-0  18027-4 0  9991
2 29228  69.9362 116.4095 0006874 233.5406 126.5122 15.02077428585771
Epoch (UTC): 19 January 2017 11:25:05
Eccentricity: 0.0006874
inclination: 69.9362°
perigee height: 556 km
apogee height: 565 km
right ascension of ascending node: 116.4095°
argument of perigee: 233.5406°
revolutions per day: 15.02077428
mean anomaly at epoch: 126.5122°
orbit number at epoch: 58577

The dashed part of the orbit path shows where the satellite is in the earth's shadow,  

DLR